Location: Lecco
(45.8566°N, 9.3977°E)
Time: 04:05:58
(UTC+02:00)

Transit 4A - Pass Details

Date: 19 August 2020
Orbit: 863 x 982 km, 66.8° (Epoch: 23 September)

Event Time Altitude Azimuth Distance (km) Brightness Sun altitude
Rises 08:48:29 0° 213° (SSW) 3,489 10.7 23.3°
Reaches altitude 10° 08:50:55 10° 213° (SSW) 2,569 10.0 23.7°
Maximum altitude 08:56:55 85° 302° (WNW) 930 8.3 24.8°
Drops below altitude 10° 09:03:09 10° 32° (NNE) 2,669 10.7 25.8°
Sets 09:05:44 0° 33° (NNE) 3,634 11.3 26.3°
